Flag for Micronesia Weather past 2 weeks in Colonia, Yap, Micronesia

Now
82 °F

Overcast.


Feels Like: 89 °F
Forecast: 78 / 85 °F
Wind: 12 mph from Northwest

Location: Yap Island

Current Time: Oct 1, 2014 at 4:34:09 AM

Latest Report: Oct 1, 2014 at 3:50 AM


Visibility: 12 mi

Pressure: 29.65 "Hg

Humidity: 84%

Dew point: 76 °F

Location of ColoniaLocation

Historic Weather in Colonia — Graph

°F

Colonia temperature yesterday

Maximum temperature yesterday: 85 °F (at 12:50 PM)
Minimum temperature yesterday: 78 °F (at 6:53 AM)
Average temperature yesterday: 81 °F

Past Weeks' High & Low Weather Summary

 TemperatureHumidityPressure
High89 °F (Sep 22, 2:51 PM)96% (Sep 16, 8:51 AM)29.93 "Hg (Sep 16, 8:51 AM)
Low75 °F (Sep 29, 4:50 PM)70% (Sep 19, 12:52 PM)29.63 "Hg (Sep 30, 2:51 PM)
Average82 °F85%29.78 "Hg
* Reported Sep 16 2:50 AM — Oct 1 2:50 AM, Colonia, Weather by CustomWeather, © 2014

Note: Actual official high and low records may vary slightly from our data, if they occured in-between our weather recording intervals... More about our weather records

Advertising

Colonia weather history for previous 24 hours

 ConditionsComfort  
Time TempWeatherWind HumidityBarometerVisibility
2:50 AM
Oct 1
82 °FOvercast.12 mph85%29.66 "Hg12 mi
1:50 AM82 °FOvercast.9 mph86%29.68 "Hg12 mi
12:51 AM81 °FOvercast.10 mph85%29.71 "Hg12 mi
11:51 PM
Sep 30
80 °FSprinkles. Overcast.12 mph89%29.73 "Hg10 mi
10:51 PM83 °FMostly cloudy.12 mph83%29.74 "Hg12 mi
9:50 PM83 °FMostly cloudy.12 mph81%29.74 "Hg12 mi
8:54 PM83 °FMostly cloudy.12 mph82%29.73 "Hg12 mi
7:52 PM82 °FMostly cloudy.12 mph78%29.70 "Hg12 mi
6:54 PM82 °FMostly cloudy.12 mph81%29.70 "Hg12 mi
5:55 PM83 °FMostly cloudy.12 mph82%29.68 "Hg12 mi
4:50 PM83 °FCloudy.14 mph82%29.66 "Hg12 mi
3:50 PM82 °FSprinkles. Mostly cloudy.14 mph88%29.65 "Hg10 mi
2:51 PM83 °FBroken clouds.12 mph82%29.63 "Hg12 mi
1:52 PM84 °FBroken clouds.13 mph80%29.67 "Hg12 mi
12:50 PM85 °FBroken clouds.14 mph78%29.70 "Hg12 mi
11:52 AM85 °FCloudy.14 mph83%29.72 "Hg12 mi
10:50 AM82 °FCloudy.8 mph88%29.75 "Hg12 mi
9:50 AM81 °FSprinkles. Cloudy.6 mph92%29.76 "Hg10 mi
8:50 AM79 °FSprinkles. Cloudy.No wind94%29.75 "Hg10 mi
7:50 AM78 °FSprinkles. Cloudy.No wind95%29.75 "Hg10 mi
6:53 AM78 °FSprinkles. Mostly cloudy.No wind95%29.73 "Hg9 mi
5:53 AM79 °FSprinkles. Mostly cloudy.2 mph92%29.73 "Hg10 mi
4:52 AM79 °FSprinkles. Mostly cloudy.5 mph93%29.70 "Hg10 mi
Weather by CustomWeather, © 2014

See weather overviewHow to use our weather pages